,,,PA_Meas_PMT16A,,PR_Meas_QMR101_102,,RH_Meas_QMH101,,SR_Meas_QMS101,,TA_Meas_QMH101,,GenWind,,GenWind,
date,time,status,PA,status,PR,status,RH,status,SR,status,TA,status,DirAvg,status,SpdAvg,
2009-08-15, 00:00:04,VALID,1010.75,VALID,0,VALID,90.3804,VALID,0,VALID,25.7991,VALID,257,VALID,0.868359,
2009-08-15, 00:01:04,VALID,1010.77,VALID,0,VALID,90.3118,VALID,0,VALID,25.8186,VALID,252,VALID,0.556641,
2009-08-15, 00:02:04,VALID,1010.82,VALID,0,VALID,90.2508,VALID,0,VALID,25.8381,VALID,240,VALID,0.364453,
2009-08-15, 00:03:04,VALID,1010.83,VALID,0,VALID,90.1288,VALID,0,VALID,25.8381,VALID,241,VALID,0.699609,
2009-08-15, 00:04:04,VALID,1010.87,VALID,0,VALID,90.1745,VALID,0,VALID,25.8361,VALID,220,VALID,0.602344,
2009-08-15, 00:05:04,VALID,1010.9,VALID,0,VALID,89.961,VALID,0,VALID,25.8361,VALID,200,VALID,0.807031,
2009-08-15, 00:06:04,VALID,1010.91,VALID,0,VALID,90.0068,VALID,0,VALID,25.8361,VALID,174,VALID,1.20195,
2009-08-15, 00:07:04,VALID,1010.91,VALID,0,VALID,90.0296,VALID,0,VALID,25.8166,VALID,191,VALID,0.313672,
2009-08-15, 00:08:04,VALID,1010.89,VALID,0,VALID,90.1135,VALID,0,VALID,25.8381,VALID,199,VALID,1.4625,
2009-08-15, 00:09:04,VALID,1010.87,VALID,0,VALID,89.7627,VALID,0,VALID,25.8186,VALID,200,VALID,1.06719,
2009-08-15, 00:10:04,VALID,1010.88,VALID,0,VALID,89.839,VALID,0,VALID,25.7581,VALID,182,VALID,0.998828,
2009-08-15, 00:11:04,VALID,1010.87,VALID,0,VALID,90.1745,VALID,0,VALID,25.7601,VALID,198,VALID,0.601953,
2009-08-15, 00:12:04,VALID,1010.85,VALID,0,VALID,90.2432,VALID,0,VALID,25.7211,VALID,172,VALID,1.03594,
2009-08-15, 00:13:04,VALID,1010.83,VALID,0,VALID,90.1974,VALID,0,VALID,25.7016,VALID,200,VALID,1.68555,
2009-08-15, 00:14:04,VALID,1010.82,VALID,0,VALID,90.5101,VALID,0,VALID,25.6626,VALID,221,VALID,1.35664,
2009-08-15, 00:15:04,VALID,1010.8,VALID,0,VALID,90.6245,VALID,0.105969,VALID,25.6217,VALID,220,VALID,1.04727,
2009-08-15, 00:16:04,VALID,1010.76,VALID,0,VALID,91.021,VALID,0,VALID,25.6041,VALID,214,VALID,0.810156,
2009-08-15, 00:17:04,VALID,1010.72,VALID,0,VALID,91.0744,VALID,0,VALID,25.5437,VALID,220,VALID,1.43867,
2009-08-15, 00:18:04,VALID,1010.69,VALID,0,VALID,91.1583,VALID,0,VALID,25.5261,VALID,213,VALID,0.639453,
2009-08-15, 00:19:04,VALID,1010.67,VALID,0,VALID,91.326,VALID,0,VALID,25.5047,VALID,221,VALID,0.807813,
2009-08-15, 00:20:04,VALID,1010.65,VALID,0,VALID,91.4862,VALID,0,VALID,25.5261,VALID,188,VALID,0.773438,
2009-08-15, 00:21:04,VALID,1010.62,VALID,0,VALID,91.6616,VALID,0,VALID,25.4871,VALID,202,VALID,0.7875,
2009-08-15, 00:22:04,VALID,1010.61,VALID,0,VALID,91.7454,VALID,0,VALID,25.4482,VALID,203,VALID,1.40703,
2009-08-15, 00:23:04,VALID,1010.58,VALID,0,VALID,91.8598,VALID,0,VALID,25.4482,VALID,203,VALID,0.850391,
2009-08-15, 00:24:04,VALID,1010.56,VALID,0,VALID,92.0428,VALID,0,VALID,25.4482,VALID,209,VALID,0.5,
2009-08-15, 00:25:04,VALID,1010.53,VALID,0,VALID,92.0352,VALID,0,VALID,25.4287,VALID,225,VALID,1.63203,
2009-08-15, 00:26:04,VALID,1010.51,VALID,0,VALID,92.0352,VALID,0,VALID,25.4072,VALID,213,VALID,0.639844,
2009-08-15, 00:27:04,VALID,1010.54,VALID,0,VALID,92.02,VALID,0,VALID,25.4287,VALID,237,VALID,0.733984,
2009-08-15, 00:28:04,VALID,1010.54,VALID,0,VALID,92.0276,VALID,0,VALID,25.4287,VALID,305,VALID,0.509766,
2009-08-15, 00:29:04,VALID,1010.57,VALID,0,VALID,92.02,VALID,0,VALID,25.4482,VALID,243,VALID,0.55,
2009-08-15, 00:30:04,VALID,1010.59,VALID,0,VALID,92.0352,VALID,0,VALID,25.4267,VALID,248,VALID,0.734375,
2009-08-15, 00:31:04,VALID,1010.64,VALID,0,VALID,92.0352,VALID,0,VALID,25.4677,VALID,231,VALID,1.11328,
2009-08-15, 00:32:04,VALID,1010.67,VALID,0,VALID,92.081,VALID,0,VALID,25.4677,VALID,221,VALID,0.908594,
2009-08-15, 00:33:04,VALID,1010.68,VALID,0,VALID,92.0886,VALID,0,VALID,25.4871,VALID,243,VALID,0.880469,
2009-08-15, 00:34:04,VALID,1010.69,VALID,0,VALID,92.1115,VALID,0,VALID,25.4871,VALID,186,VALID,1.20625,
2009-08-15, 00:35:04,VALID,1010.72,VALID,0,VALID,92.203,VALID,0,VALID,25.5066,VALID,198,VALID,0.803125,
2009-08-15, 00:36:04,VALID,1010.77,VALID,0,VALID,92.3326,VALID,0,VALID,25.4852,VALID,199,VALID,0.626172,
2009-08-15, 00:37:04,VALID,1010.75,VALID,0,VALID,92.3174,VALID,0,VALID,25.4657,VALID,199,VALID,0.273047,
2009-08-15, 00:38:04,VALID,1010.75,VALID,0,VALID,92.3479,VALID,0,VALID,25.4871,VALID,199,VALID,0.2875,
2009-08-15, 00:39:04,VALID,1010.7,VALID,0,VALID,92.447,VALID,0,VALID,25.4871,VALID,199,VALID,0.173438,
2009-08-15, 00:40:04,VALID,1010.68,VALID,0,VALID,92.5156,VALID,0,VALID,25.4871,VALID,205,VALID,0.544922,
2009-08-15, 00:41:04,VALID,1010.69,VALID,0,VALID,92.6758,VALID,0,VALID,25.4657,VALID,209,VALID,0.212109,
2009-08-15, 00:42:04,VALID,1010.64,VALID,0,VALID,92.6071,VALID,0,VALID,25.5066,VALID,204,VALID,0.891797,
2009-08-15, 00:43:04,VALID,1010.62,VALID,0,VALID,92.5461,VALID,0,VALID,25.5066,VALID,225,VALID,0.466406,
2009-08-15, 00:44:04,VALID,1010.63,VALID,0,VALID,92.5843,VALID,0,VALID,25.5047,VALID,217,VALID,0.65,
2009-08-15, 00:45:04,VALID,1010.6,VALID,0,VALID,92.5461,VALID,0,VALID,25.5261,VALID,217,VALID,0.230078,
2009-08-15, 00:46:04,VALID,1010.6,VALID,0,VALID,92.6224,VALID,0,VALID,25.5261,VALID,206,VALID,0.065625,
2009-08-15, 00:47:04,VALID,1010.59,VALID,0,VALID,92.5995,VALID,0,VALID,25.5047,VALID,191,VALID,0.521484,
2009-08-15, 00:48:04,VALID,1010.58,VALID,0,VALID,92.5538,VALID,0,VALID,25.5047,VALID,162,VALID,0.134766,
2009-08-15, 00:49:04,VALID,1010.54,VALID,0,VALID,92.5156,VALID,0,VALID,25.5047,VALID,161,VALID,0.0976563,
2009-08-15, 00:50:04,VALID,1010.56,VALID,0,VALID,92.569,VALID,0,VALID,25.4852,VALID,133,VALID,0.434766,
2009-08-15, 00:51:04,VALID,1010.53,VALID,0,VALID,92.6071,VALID,0,VALID,25.4657,VALID,133,VALID,0.134766,
2009-08-15, 00:52:04,VALID,1010.54,VALID,0,VALID,92.5538,VALID,0,VALID,25.4871,VALID,133,VALID,0.421094,
2009-08-15, 00:53:04,VALID,1010.53,VALID,0,VALID,92.5309,VALID,0,VALID,25.4871,VALID,133,VALID,0.267188,
2009-08-15, 00:54:04,VALID,1010.53,VALID,0,VALID,92.6376,VALID,0,VALID,25.4657,VALID,133,VALID,0,
2009-08-15, 00:55:04,VALID,1010.51,VALID,0,VALID,92.6605,VALID,0,VALID,25.4462,VALID,133,VALID,0.303125,
2009-08-15, 00:56:04,VALID,1010.5,VALID,0,VALID,92.7444,VALID,0,VALID,25.4072,VALID,133,VALID,0.250781,
2009-08-15, 00:57:04,VALID,1010.5,VALID,0,VALID,92.8588,VALID,0,VALID,25.4092,VALID,133,VALID,0.359375,
2009-08-15, 00:58:04,VALID,1010.51,VALID,0,VALID,92.9351,VALID,0,VALID,25.3897,VALID,133,VALID,0.467187,
2009-08-15, 00:59:04,VALID,1010.47,VALID,0,VALID,92.8512,VALID,0.105969,VALID,25.3293,VALID,144,VALID,0.000390625,
2009-08-15, 01:00:04,VALID,1010.47,VALID,0,VALID,92.8893,VALID,0.105969,VALID,25.3293,VALID,161,VALID,0.630078,
2009-08-15, 01:01:04,VALID,1010.42,VALID,0,VALID,93.0952,VALID,0.105969,VALID,25.2903,VALID,161,VALID,0.487891,
2009-08-15, 01:02:04,VALID,1010.39,VALID,0,VALID,93.2553,VALID,0,VALID,25.2513,VALID,161,VALID,0.534766,
2009-08-15, 01:03:04,VALID,1010.38,VALID,0,VALID,93.2706,VALID,0.105969,VALID,25.2318,VALID,160,VALID,0.358594,
2009-08-15, 01:04:04,VALID,1010.36,VALID,0,VALID,93.2782,VALID,0,VALID,25.2142,VALID,160,VALID,0.249609,
2009-08-15, 01:05:04,VALID,1010.3,VALID,0,VALID,93.3621,VALID,0,VALID,25.1947,VALID,160,VALID,0,
2009-08-15, 01:06:04,VALID,1010.31,VALID,0,VALID,93.4612,VALID,0.105969,VALID,25.1947,VALID,160,VALID,0,
2009-08-15, 01:07:04,VALID,1010.34,VALID,0,VALID,93.5604,VALID,0,VALID,25.1752,VALID,169,VALID,0,
2009-08-15, 01:08:04,VALID,1010.3,VALID,0,VALID,93.7358,VALID,0,VALID,25.1538,VALID,172,VALID,0,
2009-08-15, 01:09:04,VALID,1010.29,VALID,0,VALID,93.8349,VALID,0,VALID,25.1343,VALID,172,VALID,0,
2009-08-15, 01:10:04,VALID,1010.29,VALID,0,VALID,93.9035,VALID,0,VALID,25.1148,VALID,172,VALID,0,
2009-08-15, 01:11:04,VALID,1010.28,VALID,0,VALID,93.9493,VALID,0,VALID,25.1557,VALID,172,VALID,0,
2009-08-15, 01:12:04,VALID,1010.28,VALID,0,VALID,94.0484,VALID,0,VALID,25.1167,VALID,172,VALID,0,
2009-08-15, 01:13:04,VALID,1010.29,VALID,0,VALID,94.0332,VALID,0,VALID,25.1167,VALID,172,VALID,0,
2009-08-15, 01:14:04,VALID,1010.31,VALID,0,VALID,94.0027,VALID,0.105969,VALID,25.1148,VALID,172,VALID,0,
2009-08-15, 01:15:04,VALID,1010.32,VALID,0,VALID,94.056,VALID,0,VALID,25.1167,VALID,172,VALID,0,
2009-08-15, 01:16:04,VALID,1010.34,VALID,0,VALID,94.1094,VALID,0,VALID,25.0564,VALID,172,VALID,0.5,
2009-08-15, 01:17:04,VALID,1010.35,VALID,0,VALID,94.1323,VALID,0,VALID,25.0583,VALID,172,VALID,0.680078,
2009-08-15, 01:18:04,VALID,1010.34,VALID,0,VALID,94.2391,VALID,0.105969,VALID,25.0193,VALID,162,VALID,0.798047,
2009-08-15, 01:19:04,VALID,1010.34,VALID,0,VALID,94.3916,VALID,0,VALID,24.9803,VALID,162,VALID,0.432031,
2009-08-15, 01:20:04,VALID,1010.33,VALID,0,VALID,94.5517,VALID,0,VALID,24.9394,VALID,161,VALID,0.398047,
2009-08-15, 01:21:04,VALID,1010.32,VALID,0,VALID,94.6203,VALID,0,VALID,24.9413,VALID,159,VALID,0.213672,
2009-08-15, 01:22:04,VALID,1010.3,VALID,0,VALID,94.689,VALID,0,VALID,24.9199,VALID,133,VALID,0.363281,
2009-08-15, 01:23:04,VALID,1010.27,VALID,0,VALID,94.7576,VALID,0,VALID,24.9394,VALID,133,VALID,0,
2009-08-15, 01:24:04,VALID,1010.24,VALID,0,VALID,94.7729,VALID,0,VALID,24.9608,VALID,133,VALID,0,
2009-08-15, 01:25:04,VALID,1010.24,VALID,0,VALID,94.8034,VALID,0,VALID,24.9589,VALID,133,VALID,0,
2009-08-15, 01:26:04,VALID,1010.23,VALID,0,VALID,94.8873,VALID,0.105969,VALID,24.9803,VALID,133,VALID,0,
2009-08-15, 01:27:04,VALID,1010.24,VALID,0,VALID,94.9178,VALID,0,VALID,24.9589,VALID,133,VALID,0,
2009-08-15, 01:28:04,VALID,1010.22,VALID,0,VALID,94.8568,VALID,0.105969,VALID,24.9998,VALID,133,VALID,0.126563,
2009-08-15, 01:29:04,VALID,1010.22,VALID,0,VALID,94.9025,VALID,0.105969,VALID,24.9979,VALID,133,VALID,0.353906,
2009-08-15, 01:30:04,VALID,1010.21,VALID,0,VALID,94.8949,VALID,0,VALID,24.9979,VALID,133,VALID,0.496484,
2009-08-15, 01:31:04,VALID,1010.23,VALID,0,VALID,94.8415,VALID,0,VALID,24.9979,VALID,133,VALID,0.420312,
2009-08-15, 01:32:04,VALID,1010.21,VALID,0,VALID,94.7881,VALID,0,VALID,25.0193,VALID,133,VALID,0.367188,
2009-08-15, 01:33:04,VALID,1010.23,VALID,0,VALID,94.75,VALID,0.105969,VALID,25.0174,VALID,133,VALID,0.0277344,
2009-08-15, 01:34:04,VALID,1010.21,VALID,0,VALID,94.6814,VALID,0,VALID,25.0369,VALID,113,VALID,0,
2009-08-15, 01:35:04,VALID,1010.2,VALID,0,VALID,94.5212,VALID,0.105969,VALID,25.0369,VALID,104,VALID,0,
2009-08-15, 01:36:04,VALID,1010.18,VALID,0,VALID,94.4145,VALID,0.105969,VALID,25.0778,VALID,104,VALID,0,
2009-08-15, 01:37:04,VALID,1010.16,VALID,0,VALID,94.3001,VALID,0,VALID,25.0759,VALID,104,VALID,0,
2009-08-15, 01:38:04,VALID,1010.15,VALID,0,VALID,94.2619,VALID,0,VALID,25.0759,VALID,104,VALID,0,
2009-08-15, 01:39:04,VALID,1010.11,VALID,0,VALID,94.4755,VALID,0,VALID,25.1148,VALID,77,VALID,0,
2009-08-15, 01:40:04,VALID,1010.09,VALID,0,VALID,94.4755,VALID,0.105969,VALID,25.1167,VALID,26,VALID,0.759766,
2009-08-15, 01:41:04,VALID,1010.1,VALID,0,VALID,94.5212,VALID,0,VALID,25.1167,VALID,23,VALID,0.758984,
2009-08-15, 01:42:04,VALID,1010.1,VALID,0,VALID,94.4145,VALID,0.105969,VALID,25.0583,VALID,23,VALID,0.407422,
2009-08-15, 01:43:04,VALID,1010.11,VALID,0,VALID,94.4678,VALID,0.105969,VALID,25.0174,VALID,23,VALID,0.642969,
2009-08-15, 01:44:04,VALID,1010.11,VALID,0,VALID,94.5136,VALID,0.105969,VALID,25.0193,VALID,51,VALID,0.479688,
2009-08-15, 01:45:04,VALID,1010.14,VALID,0,VALID,94.6127,VALID,0,VALID,24.9589,VALID,50,VALID,0.471094,
2009-08-15, 01:46:04,VALID,1010.12,VALID,0,VALID,94.7652,VALID,0,VALID,24.9608,VALID,50,VALID,0.338281,
2009-08-15, 01:47:04,VALID,1010.13,VALID,0,VALID,94.8644,VALID,0,VALID,24.9413,VALID,50,VALID,0.542969,
2009-08-15, 01:48:04,VALID,1010.15,VALID,0,VALID,95.0321,VALID,0,VALID,24.9608,VALID,50,VALID,0.369141,
2009-08-15, 01:49:04,VALID,1010.14,VALID,0,VALID,95.1313,VALID,0,VALID,24.9413,VALID,50,VALID,0.487891,
2009-08-15, 01:50:04,VALID,1010.18,VALID,0,VALID,95.2152,VALID,0,VALID,24.9413,VALID,50,VALID,0.358984,
2009-08-15, 01:51:04,VALID,1010.16,VALID,0,VALID,95.2838,VALID,0.105969,VALID,24.9199,VALID,53,VALID,0.439063,
2009-08-15, 01:52:04,VALID,1010.2,VALID,0,VALID,95.2838,VALID,0,VALID,24.9218,VALID,50,VALID,0.858594,
2009-08-15, 01:53:04,VALID,1010.2,VALID,0,VALID,95.2228,VALID,0.105969,VALID,24.9004,VALID,53,VALID,0.619141,
2009-08-15, 01:54:04,VALID,1010.15,VALID,0,VALID,95.1999,VALID,0.105969,VALID,24.9199,VALID,38,VALID,0.546484,
2009-08-15, 01:55:04,VALID,1010.17,VALID,0,VALID,95.1236,VALID,0,VALID,24.9023,VALID,53,VALID,0.563281,
2009-08-15, 01:56:04,VALID,1010.17,VALID,0,VALID,95.1313,VALID,0,VALID,24.9023,VALID,40,VALID,0.620313,
2009-08-15, 01:57:04,VALID,1010.15,VALID,0,VALID,95.1389,VALID,0.105969,VALID,24.8809,VALID,16,VALID,0.555469,
2009-08-15, 01:58:04,VALID,1010.12,VALID,0,VALID,95.2228,VALID,0,VALID,24.9023,VALID,28,VALID,0.162109,
2009-08-15, 01:59:04,VALID,1010.16,VALID,0,VALID,95.2762,VALID,0,VALID,24.8633,VALID,71,VALID,0.74375,
2009-08-15, 02:00:04,VALID,1010.15,VALID,0,VALID,95.3219,VALID,0.105969,VALID,24.8633,VALID,38,VALID,0.511719,
2009-08-15, 02:01:04,VALID,1010.16,VALID,0,VALID,95.4211,VALID,0,VALID,24.8225,VALID,38,VALID,0.0613281,
2009-08-15, 02:02:04,VALID,1010.15,VALID,0,VALID,95.4592,VALID,0.105969,VALID,24.803,VALID,21,VALID,0.214844,
2009-08-15, 02:03:04,VALID,1010.14,VALID,0,VALID,95.5126,VALID,0,VALID,24.8244,VALID,21,VALID,0.191797,
2009-08-15, 02:04:04,VALID,1010.11,VALID,0,VALID,95.5736,VALID,0,VALID,24.803,VALID,21,VALID,0,
2009-08-15, 02:05:04,VALID,1010.1,VALID,0,VALID,95.6498,VALID,0,VALID,24.8244,VALID,21,VALID,0,
2009-08-15, 02:06:04,VALID,1010.06,VALID,0,VALID,95.688,VALID,0,VALID,24.8244,VALID,21,VALID,0.252734,
2009-08-15, 02:07:04,VALID,1010.01,VALID,0,VALID,95.7032,VALID,0,VALID,24.7835,VALID,21,VALID,0.129297,
2009-08-15, 02:08:04,VALID,1010.01,VALID,0,VALID,95.7261,VALID,0,VALID,24.8049,VALID,346,VALID,0.533984,
2009-08-15, 02:09:04,VALID,1009.98,VALID,0,VALID,95.7261,VALID,0,VALID,24.7445,VALID,344,VALID,0.408594,
2009-08-15, 02:10:04,VALID,1009.98,VALID,0,VALID,95.7642,VALID,0.105969,VALID,24.764,VALID,344,VALID,0.10625,
2009-08-15, 02:11:04,VALID,1009.95,VALID,0,VALID,95.8481,VALID,0.105969,VALID,24.764,VALID,344,VALID,0.189453,
2009-08-15, 02:12:04,VALID,1009.96,VALID,0,VALID,95.8405,VALID,0.105969,VALID,24.725,VALID,344,VALID,0.166016,
2009-08-15, 02:13:04,VALID,1009.96,VALID,0,VALID,95.8939,VALID,0.105969,VALID,24.7445,VALID,344,VALID,0.195313,
2009-08-15, 02:14:04,VALID,1009.94,VALID,0,VALID,95.9396,VALID,0,VALID,24.725,VALID,344,VALID,0.226953,
2009-08-15, 02:15:04,VALID,1009.94,VALID,0,VALID,95.9625,VALID,0,VALID,24.7074,VALID,358,VALID,0.407422,
2009-08-15, 02:16:04,VALID,1009.91,VALID,0,VALID,95.9244,VALID,0.105969,VALID,24.686,VALID,328,VALID,0.914063,
2009-08-15, 02:17:04,VALID,1009.87,VALID,0,VALID,95.9244,VALID,0.105969,VALID,24.6684,VALID,336,VALID,0.635156,
2009-08-15, 02:18:04,VALID,1009.86,VALID,0,VALID,95.9854,VALID,0.105969,VALID,24.6276,VALID,351,VALID,0.578516,
2009-08-15, 02:19:04,VALID,1009.82,VALID,0,VALID,95.9549,VALID,0.105969,VALID,24.6081,VALID,303,VALID,0.587891,
2009-08-15, 02:20:04,VALID,1009.84,VALID,0,VALID,95.993,VALID,0,VALID,24.6099,VALID,333,VALID,0.240234,
2009-08-15, 02:21:04,VALID,1009.83,VALID,0,VALID,96.0082,VALID,0,VALID,24.5691,VALID,345,VALID,0,
2009-08-15, 02:22:04,VALID,1009.84,VALID,0,VALID,96.0464,VALID,0,VALID,24.5905,VALID,328,VALID,0.126953,
2009-08-15, 02:23:04,VALID,1009.83,VALID,0,VALID,96.115,VALID,0,VALID,24.5905,VALID,254,VALID,0,
2009-08-15, 02:24:04,VALID,1009.86,VALID,0,VALID,96.1302,VALID,0,VALID,24.571,VALID,184,VALID,0,
2009-08-15, 02:25:04,VALID,1009.85,VALID,0,VALID,96.0769,VALID,0.105969,VALID,24.532,VALID,118,VALID,0,
2009-08-15, 02:26:04,VALID,1009.84,VALID,0,VALID,96.0311,VALID,0.105969,VALID,24.5106,VALID,107,VALID,0,
2009-08-15, 02:27:04,VALID,1009.81,VALID,0,VALID,96.054,VALID,0,VALID,24.4911,VALID,107,VALID,0,
2009-08-15, 02:28:04,VALID,1009.82,VALID,0,VALID,96.115,VALID,0.105969,VALID,24.5125,VALID,106,VALID,0,
2009-08-15, 02:29:04,VALID,1009.82,VALID,0,VALID,96.176,VALID,0.105969,VALID,24.5125,VALID,98,VALID,0.978125,
2009-08-15, 02:30:04,VALID,1009.8,VALID,0,VALID,96.2828,VALID,0.105969,VALID,24.4911,VALID,85,VALID,1.25117,
2009-08-15, 02:31:04,VALID,1009.8,VALID,0,VALID,96.2675,VALID,0.105969,VALID,24.4522,VALID,89,VALID,1.07852,
2009-08-15, 02:32:04,VALID,1009.79,VALID,0,VALID,96.3133,VALID,0.105969,VALID,24.4717,VALID,78,VALID,0.921484,
2009-08-15, 02:33:04,VALID,1009.77,VALID,0,VALID,96.3514,VALID,0.105969,VALID,24.4735,VALID,92,VALID,0.801953,
2009-08-15, 02:34:04,VALID,1009.78,VALID,0,VALID,96.3895,VALID,0,VALID,24.4522,VALID,97,VALID,0.833594,
2009-08-15, 02:35:04,VALID,1009.75,VALID,0,VALID,96.42,VALID,0,VALID,24.454,VALID,74,VALID,1.06016,
2009-08-15, 02:36:05,VALID,1009.72,VALID,0,VALID,96.4658,VALID,0,VALID,24.415,VALID,84,VALID,0.551562,
2009-08-15, 02:37:04,VALID,1009.7,VALID,0,VALID,96.5268,VALID,0,VALID,24.4345,VALID,80,VALID,0.942187,
2009-08-15, 02:38:04,VALID,1009.66,VALID,0,VALID,96.5725,VALID,0,VALID,24.3956,VALID,72,VALID,1.00937,
2009-08-15, 02:39:04,VALID,1009.62,VALID,0,VALID,96.6183,VALID,0,VALID,24.3742,VALID,72,VALID,0.864453,
2009-08-15, 02:40:04,VALID,1009.6,VALID,0,VALID,96.6793,VALID,0,VALID,24.3956,VALID,15,VALID,0.799219,
2009-08-15, 02:41:04,VALID,1009.6,VALID,0.5,VALID,96.7403,VALID,0,VALID,24.3761,VALID,19,VALID,0.58125,
2009-08-15, 02:42:04,VALID,1009.58,VALID,0.5,VALID,96.7937,VALID,0,VALID,24.3566,VALID,13,VALID,0.454688,
2009-08-15, 02:43:04,VALID,1009.55,VALID,1,VALID,96.8623,VALID,0,VALID,24.3566,VALID,343,VALID,0.436719,
2009-08-15, 02:44:04,VALID,1009.51,VALID,0.5,VALID,96.931,VALID,0,VALID,24.3176,VALID,341,VALID,0.549219,
2009-08-15, 02:45:05,VALID,1009.49,VALID,0.5,VALID,96.9996,VALID,0.105969,VALID,24.2768,VALID,323,VALID,0.994141,
2009-08-15, 02:46:05,VALID,1009.46,VALID,0.5,VALID,97.0758,VALID,0,VALID,24.2573,VALID,329,VALID,0.899219,
2009-08-15, 02:47:05,VALID,1009.45,VALID,0.5,VALID,97.1445,VALID,0,VALID,24.2183,VALID,306,VALID,0.740234,
2009-08-15, 02:48:05,VALID,1009.43,VALID,0.5,VALID,97.2055,VALID,0,VALID,24.1988,VALID,336,VALID,0.430469,
2009-08-15, 02:49:05,VALID,1009.4,VALID,0.5,VALID,97.2741,VALID,0,VALID,24.2007,VALID,343,VALID,0,
2009-08-15, 02:50:05,VALID,1009.34,VALID,0.5,VALID,97.3046,VALID,0.105969,VALID,24.1599,VALID,344,VALID,0.160156,
2009-08-15, 02:51:05,VALID,1009.33,VALID,0,VALID,97.3732,VALID,0,VALID,24.1422,VALID,186,VALID,0.370313,
2009-08-15, 02:52:05,VALID,1009.29,VALID,0,VALID,97.3732,VALID,0,VALID,24.144,VALID,283,VALID,0.219141,
2009-08-15, 02:53:05,VALID,1009.28,VALID,0,VALID,97.4114,VALID,0,VALID,24.1635,VALID,218,VALID,0.271484,
2009-08-15, 02:54:05,VALID,1009.26,VALID,0,VALID,97.4266,VALID,0,VALID,24.1227,VALID,218,VALID,0,
2009-08-15, 02:55:05,VALID,1009.26,VALID,0,VALID,97.4342,VALID,0,VALID,24.1422,VALID,218,VALID,0,
2009-08-15, 02:56:05,VALID,1009.28,VALID,0,VALID,97.4724,VALID,0,VALID,24.1635,VALID,218,VALID,0,
2009-08-15, 02:57:05,VALID,1009.27,VALID,0,VALID,97.48,VALID,0,VALID,24.183,VALID,218,VALID,0,
2009-08-15, 02:58:05,VALID,1009.28,VALID,0,VALID,97.5105,VALID,0,VALID,24.1635,VALID,218,VALID,0.189844,
2009-08-15, 02:59:05,VALID,1009.31,VALID,0,VALID,97.5105,VALID,0,VALID,24.1032,VALID,284,VALID,0.0871094,
2009-08-15, 03:00:05,VALID,1009.33,VALID,0,VALID,97.5105,VALID,0,VALID,24.1032,VALID,284,VALID,0,
2009-08-15, 03:01:05,VALID,1009.31,VALID,0,VALID,97.5486,VALID,0,VALID,24.0837,VALID,284,VALID,0,
2009-08-15, 03:02:05,VALID,1009.32,VALID,0,VALID,97.5334,VALID,0,VALID,24.0856,VALID,284,VALID,0,
2009-08-15, 03:03:05,VALID,1009.3,VALID,0,VALID,97.5486,VALID,0,VALID,24.0643,VALID,260,VALID,0.438672,
2009-08-15, 03:04:05,VALID,1009.3,VALID,0,VALID,97.5486,VALID,0,VALID,24.1051,VALID,218,VALID,0.689062,
2009-08-15, 03:05:05,VALID,1009.3,VALID,0,VALID,97.5639,VALID,0,VALID,24.1032,VALID,213,VALID,0.3625,
2009-08-15, 03:06:05,VALID,1009.32,VALID,0,VALID,97.5868,VALID,0,VALID,24.1227,VALID,213,VALID,0.110156,
2009-08-15, 03:07:05,VALID,1009.32,VALID,0,VALID,97.5791,VALID,0.105969,VALID,24.1209,VALID,213,VALID,0,
2009-08-15, 03:08:05,VALID,1009.35,VALID,0,VALID,97.5715,VALID,0.105969,VALID,24.1209,VALID,246,VALID,0,
2009-08-15, 03:09:05,VALID,1009.33,VALID,0,VALID,97.6096,VALID,0,VALID,24.1209,VALID,355,VALID,0,
2009-08-15, 03:10:05,VALID,1009.33,VALID,0,VALID,97.6096,VALID,0,VALID,24.1032,VALID,358,VALID,0,
2009-08-15, 03:11:05,VALID,1009.34,VALID,0,VALID,97.6096,VALID,0,VALID,24.0624,VALID,351,VALID,0,
2009-08-15, 03:12:05,VALID,1009.34,VALID,0,VALID,97.6096,VALID,0,VALID,24.0429,VALID,351,VALID,0,
2009-08-15, 03:13:05,VALID,1009.31,VALID,0,VALID,97.6096,VALID,0,VALID,24.0643,VALID,325,VALID,0,
2009-08-15, 03:14:05,VALID,1009.34,VALID,0,VALID,97.6249,VALID,0,VALID,24.0643,VALID,325,VALID,0,
2009-08-15, 03:15:05,VALID,1009.33,VALID,0,VALID,97.602,VALID,0.105969,VALID,24.0448,VALID,325,VALID,0,
2009-08-15, 03:16:05,VALID,1009.35,VALID,0,VALID,97.5944,VALID,0.105969,VALID,24.0235,VALID,325,VALID,0,
2009-08-15, 03:17:05,VALID,1009.34,VALID,0,VALID,97.6173,VALID,0,VALID,24.0448,VALID,325,VALID,0,
2009-08-15, 03:18:05,VALID,1009.39,VALID,0,VALID,97.6325,VALID,0.105969,VALID,24.0448,VALID,325,VALID,0,
2009-08-15, 03:19:05,VALID,1009.4,VALID,0,VALID,97.5944,VALID,0.105969,VALID,24.0429,VALID,325,VALID,0,
2009-08-15, 03:20:05,VALID,1009.41,VALID,0,VALID,97.6173,VALID,0,VALID,24.0643,VALID,325,VALID,0,
2009-08-15, 03:21:05,VALID,1009.42,VALID,0,VALID,97.602,VALID,0,VALID,24.1032,VALID,325,VALID,0,
2009-08-15, 03:22:05,VALID,1009.43,VALID,0,VALID,97.6096,VALID,0.105969,VALID,24.1227,VALID,325,VALID,0,
2009-08-15, 03:23:05,VALID,1009.44,VALID,0,VALID,97.6096,VALID,0.105969,VALID,24.1014,VALID,325,VALID,0,
2009-08-15, 03:24:05,VALID,1009.43,VALID,0,VALID,97.5944,VALID,0.105969,VALID,24.1422,VALID,325,VALID,0,
2009-08-15, 03:25:05,VALID,1009.42,VALID,0,VALID,97.5944,VALID,0,VALID,24.1227,VALID,325,VALID,0,
2009-08-15, 03:26:05,VALID,1009.44,VALID,0,VALID,97.6096,VALID,0,VALID,24.1227,VALID,325,VALID,0,
2009-08-15, 03:27:05,VALID,1009.41,VALID,0,VALID,97.602,VALID,0,VALID,24.1014,VALID,325,VALID,0,
2009-08-15, 03:28:05,VALID,1009.43,VALID,0,VALID,97.602,VALID,0,VALID,24.1209,VALID,325,VALID,0,
2009-08-15, 03:29:05,VALID,1009.42,VALID,0,VALID,97.6096,VALID,0,VALID,24.1227,VALID,325,VALID,0,
2009-08-15, 03:30:05,VALID,1009.4,VALID,0,VALID,97.6325,VALID,0,VALID,24.1032,VALID,358,VALID,0,
2009-08-15, 03:31:05,VALID,1009.38,VALID,0,VALID,97.6249,VALID,0,VALID,24.0429,VALID,358,VALID,0,
2009-08-15, 03:32:05,VALID,1009.37,VALID,0,VALID,97.6249,VALID,0,VALID,24.0253,VALID,1,VALID,0,
2009-08-15, 03:33:05,VALID,1009.34,VALID,0,VALID,97.6173,VALID,0,VALID,24.0253,VALID,1,VALID,0,
2009-08-15, 03:34:05,VALID,1009.36,VALID,0,VALID,97.6096,VALID,0,VALID,24.0058,VALID,1,VALID,0,
2009-08-15, 03:35:05,VALID,1009.37,VALID,0,VALID,97.6249,VALID,0,VALID,23.9845,VALID,1,VALID,0,
2009-08-15, 03:36:05,VALID,1009.34,VALID,0,VALID,97.6325,VALID,0,VALID,24.0058,VALID,83,VALID,0,
2009-08-15, 03:37:05,VALID,1009.35,VALID,0,VALID,97.6096,VALID,0.105969,VALID,23.9845,VALID,83,VALID,0,
2009-08-15, 03:38:05,VALID,1009.33,VALID,0,VALID,97.6249,VALID,0.105969,VALID,23.965,VALID,85,VALID,0,
2009-08-15, 03:39:05,VALID,1009.32,VALID,0,VALID,97.6096,VALID,0,VALID,24.0058,VALID,85,VALID,0,
2009-08-15, 03:40:05,VALID,1009.31,VALID,0,VALID,97.6249,VALID,0.105969,VALID,23.9863,VALID,132,VALID,0,
2009-08-15, 03:41:05,VALID,1009.33,VALID,0,VALID,97.6096,VALID,0.105969,VALID,23.965,VALID,170,VALID,0,
2009-08-15, 03:42:05,VALID,1009.35,VALID,0,VALID,97.6249,VALID,0,VALID,24.0058,VALID,178,VALID,0.724219,
2009-08-15, 03:43:05,VALID,1009.37,VALID,0,VALID,97.602,VALID,0,VALID,24.004,VALID,178,VALID,0.495703,
2009-08-15, 03:44:05,VALID,1009.37,VALID,0,VALID,97.5944,VALID,0.105969,VALID,24.0253,VALID,179,VALID,0.448438,
2009-08-15, 03:45:05,VALID,1009.39,VALID,0,VALID,97.602,VALID,0.105969,VALID,24.0448,VALID,179,VALID,0.0199219,
2009-08-15, 03:46:05,VALID,1009.42,VALID,0,VALID,97.5715,VALID,0.105969,VALID,24.0624,VALID,179,VALID,0,